Regional Weather Roundup
Issued by NWS

Home | Current Version | Previous Version | Graphics & Text | Print | Product List | Glossary On
Versions: 1 2 3 4 5 6 7 8 9 10 11 12 13 14 15 16 17 18 19 20 21 22 23 24 25 26 27 28 29 30 31 32 33 34 35 36 37 38 39 40 41 42 43 44 45 46 47 48 49 50
000
ASUS43 KLMK 192110
RWRKY
KENTUCKY REGIONAL WEATHER ROUNDUP
NATIONAL WEATHER SERVICE LOUISVILLE KY
400 PM EST THU JAN 19 2017

NOTE "FAIR" INDICATES FEW OR NO CLOUDS BELOW 12,000 FEET
WITH NO SIGNIFICANT WEATHER AND/OR OBSTRUCTIONS TO VISIBILITY.

KYZ001>023-026-027-061>063-070>075-192200-
WESTERN AND SOUTH CENTRAL KENTUCKY

CITY           SKY/WX    TMP DP  RH WIND       PRES   REMARKS
PADUCAH        CLOUDY    56  54  93 SE6       29.72F FOG
HENDERSON      CLOUDY    52  46  82 SE8       29.77F
OWENSBORO      LGT RAIN  52  50  93 SE8       29.79F
HOPKINSVILLE   DRIZZLE   54  54 100 SE9       29.77F
BOWLING GREEN  LGT RAIN  55  54  96 E5        29.82F FOG
GLASGOW        RAIN     N/A N/A N/A E6        29.83F
$$

KYZ024-025-028>034-038-045-046-053-192200-
NORTH CENTRAL KENTUCKY

CITY           SKY/WX    TMP DP  RH WIND       PRES   REMARKS
LOUISVILLE/SDF CLOUDY    55  41  59 SE10      29.84F
LOUISVILLE/LOU CLOUDY    55  40  56 E8        29.86F
FORT KNOX      CLOUDY    53  45  74 E8        29.82S
$$

KYZ035>037-039>044-047>052-055>060-089>105-192200-
NORTHEAST KENTUCKY

CITY           SKY/WX    TMP DP  RH WIND       PRES   REMARKS
LEXINGTON      LGT RAIN  55  37  50 SE8       29.90F
COVINGTON      CLOUDY    49  41  74 E7        29.91F
FRANKFORT      CLOUDY    56  36  47 SE9       29.88F
$$

KYZ054-064>069-076>088-106>120-192200-
SOUTHEAST KENTUCKY

CITY           SKY/WX    TMP DP  RH WIND       PRES   REMARKS
JACKSON        CLOUDY    55  39  54 CALM      29.93F
LONDON         LGT RAIN  49  47  93 SE6       29.92F FOG
SOMERSET       CLOUDY    48  48 100 E5        29.92F
MIDDLESBORO    CLOUDY    51  49  92 CALM      29.96F
MONTICELLO     CLOUDY    54  51  90 VRB7      29.90F
$$





USA.gov is the U.S. government's official web portal to all federal, state and local government web resources and services.